Location: Zagreb
(45.8000°N, 16.0000°E)
Time: 02:11:26
(UTC+02:00)

Transit 2A Rocket - Pass Details

Date: 28 January 2022
Orbit: 592 x 909 km, 66.7° (Epoch: 26 May)

Event Time Altitude Azimuth Distance (km) Brightness Sun altitude
Rises 04:16:56 0° 314° (NW) 3,392 - -32.3°
Reaches altitude 10° 04:20:12 10° 297° (WNW) 2,393 - -31.8°
Maximum altitude 04:23:46 18° 256° (WSW) 1,829 - -31.2°
Drops below altitude 10° 04:27:09 10° 214° (SW) 2,240 - -30.6°
Sets 04:30:05 0° 196° (SSW) 3,091 - -30.1°
